GW0658 Weather Reports


Display with metric or nautical units.
time (UTC)temp
F
wind
direction
speed
MPH
gust
MPH
rain 1hr
in
rain 24hr
in
rain mn
in
humidity
%
barometer
mb
20260508012518 70 246 2.0 5.0 0.00 0.00 0.00 59 1020.2
20260508012018 70 282 2.0 7.0 0.00 0.00 0.00 61 1020.2
20260508011536 69 221 3.0 7.0 0.00 0.00 0.00 58 1020.2
20260508011017 70 273 3.0 8.0 0.00 0.00 0.00 58 1020.1
20260508010517 70 254 3.0 8.0 0.00 0.00 0.00 57 1020.1
20260508010041 70 233 3.0 8.0 0.00 0.00 0.00 57 1020.2
20260508005518 70 208 4.0 8.0 0.00 0.00 0.00 53 1020.2
20260508005019 71 247 4.0 9.0 0.00 0.00 0.00 51 1020.2
20260508004534 71 222 3.0 9.0 0.00 0.00 0.00 53 1020.2
20260508004017 71 259 4.0 9.0 0.00 0.00 0.00 48 1020.2
20260508003519 72 246 3.0 8.0 0.00 0.00 0.00 48 1020.2
20260508003035 72 222 2.0 8.0 0.00 0.00 0.00 46 1020.3
20260508002516 72 258 3.0 8.0 0.00 0.00 0.00 43 1020.1
20260508002018 72 228 3.0 9.0 0.00 0.00 0.00 43 1020.2
20260508001537 71 214 3.0 9.0 0.00 0.00 0.00 49 1020.1
20260508001015 71 232 4.0 9.0 0.00 0.00 0.00 53 1020.2
20260508000518 71 224 3.0 9.0 0.00 0.00 0.00 49 1020.2
20260508000040 72 248 4.0 9.0 0.00 0.00 0.00 45 1020.2
20260507235516 71 265 3.0 7.0 0.00 0.00 0.00 50 1020.1
20260507235016 71 239 3.0 8.0 0.00 0.00 0.00 54 1020.1
20260507234542 71 208 3.0 11.0 0.00 0.00 0.00 54 1020.1
20260507234016 71 218 3.0 11.0 0.00 0.00 0.00 56 1020.2
20260507233517 71 234 3.0 11.0 0.00 0.00 0.00 51 1020.2
20260507233041 71 5 4.0 10.0 0.00 0.00 0.00 58 1020.2
20260507232518 72 247 4.0 10.0 0.00 0.00 0.00 55 1020.2
20260507232022 72 205 3.0 8.0 0.00 0.00 0.00 54 1020.2
20260507231551 72 229 4.0 8.0 0.00 0.00 0.00 55 1020.2
20260507231019 72 199 3.0 7.0 0.00 0.00 0.00 57 1020.2
20260507230519 72 207 4.0 9.0 0.00 0.00 0.00 57 1020.3
20260507230041 72 221 2.0 9.0 0.00 0.00 0.00 57 1020.4
20260507225515 72 284 3.0 9.0 0.00 0.00 0.00 59 1020.4
20260507225019 72 267 3.0 10.0 0.00 0.00 0.00 60 1020.4
20260507224550 72 252 4.0 10.0 0.00 0.00 0.00 57 1020.5
20260507224016 72 238 5.0 10.0 0.00 0.00 0.00 52 1020.6
20260507223518 73 249 4.0 8.0 0.00 0.00 0.00 56 1020.6
20260507223043 73 203 5.0 8.0 0.00 0.00 0.00 54 1020.7
20260507222519 72 183 3.0 8.0 0.00 0.00 0.00 58 1020.8
20260507222015 73 236 4.0 7.0 0.00 0.00 0.00 56 1020.9
20260507221538 72 226 4.0 9.0 0.00 0.00 0.00 56 1020.8
20260507221017 72 305 3.0 11.0 0.00 0.00 0.00 60 1020.9
20260507220519 71 14 2.0 11.0 0.00 0.00 0.00 57 1021.0
20260507220038 72 229 7.0 11.0 0.00 0.00 0.00 59 1021.1
20260507215519 72 210 3.0 7.0 0.00 0.00 0.00 60 1021.2
20260507215019 72 208 2.0 7.0 0.00 0.00 0.00 63 1021.3
20260507214542 72 265 3.0 12.0 0.00 0.00 0.00 59 1021.3
20260507214018 71 229 2.0 12.0 0.00 0.00 0.00 64 1021.2
20260507213516 72 238 7.0 12.0 0.00 0.00 0.00 60 1021.3
20260507213047 72 262 2.0 11.0 0.00 0.00 0.00 62 1021.3
20260507212516 71 207 4.0 11.0 0.00 0.00 0.00 63 1021.4
20260507212018 71 272 3.0 10.0 0.00 0.00 0.00 63 1021.4
20260507211535 71 229 4.0 10.0 0.00 0.00 0.00 64 1021.5
20260507211016 71 256 4.0 10.0 0.00 0.00 0.00 65 1021.5
20260507210518 71 244 4.0 8.0 0.00 0.00 0.00 65 1021.5
20260507210105 71 252 2.0 8.0 0.00 0.00 0.00 63 1021.6
20260507205517 71 263 4.0 9.0 0.00 0.00 0.00 66 1021.7
20260507205019 71 241 3.0 9.0 0.00 0.00 0.00 63 1021.7
20260507204541 71 260 4.0 9.0 0.00 0.00 0.00 66 1021.6
20260507204018 71 221 4.0 8.0 0.00 0.00 0.00 65 1021.6
20260507203517 71 248 4.0 9.0 0.00 0.00 0.00 66 1021.7
20260507203035 71 242 4.0 9.0 0.00 0.00 0.00 62 1021.6
20260507202517 72 242 3.0 7.0 0.00 0.00 0.00 62 1021.7
20260507202016 71 205 3.0 7.0 0.00 0.00 0.00 63 1021.7
20260507201537 71 236 4.0 7.0 0.00 0.00 0.00 64 1021.8
20260507201020 71 228 3.0 10.0 0.00 0.00 0.00 66 1021.8
20260507200517 71 290 4.0 10.0 0.00 0.00 0.00 62 1021.8
20260507200052 71 0 1.0 9.0 0.00 0.00 0.00 61 1021.8
20260507195518 70 252 1.0 9.0 0.00 0.00 0.00 67 1021.7
20260507195021 71 240 4.0 8.0 0.00 0.00 0.00 66 1021.9
20260507194535 71 229 3.0 6.0 0.00 0.00 0.00 66 1021.8
20260507194016 71 211 3.0 6.0 0.00 0.00 0.00 65 1021.8
20260507193521 70 201 2.0 7.0 0.00 0.00 0.00 63 1021.9
20260507193101 70 292 2.0 7.0 0.00 0.00 0.00 67 1021.9
20260507192517 70 268 2.0 8.0 0.00 0.00 0.00 65 1021.9
20260507192016 70 235 4.0 8.0 0.00 0.00 0.00 66 1021.9
20260507191534 70 286 1.0 4.0 0.00 0.00 0.00 66 1021.9
20260507191017 69 237 2.0 5.0 0.00 0.00 0.00 64 1021.9
20260507190518 69 258 2.0 7.0 0.00 0.00 0.00 69 1021.9
20260507190042 69 231 2.0 7.0 0.00 0.00 0.00 66 1021.9
20260507185517 68 244 3.0 6.0 0.00 0.00 0.00 68 1022.1
20260507185016 68 214 2.0 5.0 0.00 0.00 0.00 66 1022.1
20260507184541 68 261 2.0 6.0 0.00 0.00 0.00 69 1022.0
20260507184019 68 245 3.0 6.0 0.00 0.00 0.00 67 1022.1
20260507183520 68 265 2.0 5.0 0.00 0.00 0.00 68 1022.1
20260507183041 68 255 1.0 5.0 0.00 0.00 0.00 68 1022.1
20260507182516 68 238 2.0 5.0 0.00 0.00 0.00 69 1022.1
20260507182016 68 272 2.0 5.0 0.00 0.00 0.00 72 1022.1
20260507181534 67 219 3.0 7.0 0.00 0.00 0.00 72 1022.1
20260507181021 67 268 3.0 7.0 0.00 0.00 0.00 72 1022.1
20260507180517 67 253 3.0 7.0 0.00 0.00 0.00 69 1022.0
20260507180034 67 243 1.0 4.0 0.00 0.00 0.00 72 1021.9
20260507175517 67 0 1.0 5.0 0.00 0.00 0.00 68 1022.0
20260507175019 67 214 1.0 5.0 0.00 0.00 0.00 68 1021.9
20260507174535 66 254 1.0 5.0 0.00 0.00 0.00 68 1022.0
20260507174018 66 0 1.0 6.0 0.00 0.00 0.00 67 1021.9
20260507173520 66 209 1.0 6.0 0.00 0.00 0.00 71 1021.9
20260507173035 66 219 1.0 4.0 0.00 0.00 0.00 66 1021.9
20260507172518 66 218 1.0 4.0 0.00 0.00 0.00 67 1021.9
20260507172018 65 227 0.0 3.0 0.00 0.00 0.00 68 1021.8
20260507171544 65 0 0.0 4.0 0.00 0.00 0.00 70 1021.8
20260507171020 65 0 0.0 4.0 0.00 0.00 0.00 72 1021.8
20260507170516 64 219 1.0 3.0 0.00 0.00 0.00 71 1021.8
20260507170046 64 103 1.0 4.0 0.00 0.00 0.00 73 1021.9
20260507165519 64 225 1.0 4.0 0.00 0.00 0.00 75 1021.8
20260507165020 63 223 2.0 3.0 0.00 0.00 0.00 73 1021.8
20260507164536 63 227 1.0 3.0 0.00 0.00 0.00 77 1021.9
20260507164019 62 0 1.0 4.0 0.00 0.00 0.00 78 1021.8
20260507163519 62 247 1.0 4.0 0.00 0.00 0.00 76 1021.9
20260507163038 61 0 0.0 4.0 0.00 0.00 0.00 78 1021.8
20260507162518 61 247 1.0 3.0 0.00 0.00 0.00 78 1021.8
20260507162021 60 245 1.0 3.0 0.00 0.00 0.00 79 1021.8
20260507161533 60 241 1.0 3.0 0.00 0.00 0.00 81 1021.8
20260507161018 60 0 1.0 3.0 0.00 0.00 0.00 81 1021.8
20260507160518 59 235 1.0 3.0 0.00 0.00 0.00 82 1021.7
20260507160055 58 235 0.0 3.0 0.00 0.00 0.00 84 1021.7
20260507155521 58 235 1.0 3.0 0.00 0.00 0.00 86 1021.7
20260507155018 57 223 0.0 3.0 0.00 0.00 0.00 87 1021.7
20260507154540 56 0 0.0 0.0 0.00 0.00 0.00 87 1021.6
20260507154017 56 0 0.0 0.0 0.00 0.00 0.00 87 1021.6
20260507153519 55 0 0.0 0.0 0.00 0.00 0.00 88 1021.6
20260507153039 55 0 0.0 0.0 0.00 0.00 0.00 89 1021.6
20260507152517 55 0 0.0 0.0 0.00 0.00 0.00 90 1021.6
20260507152018 55 0 0.0 0.0 0.00 0.00 0.00 91 1021.6
20260507151534 55 0 0.0 0.0 0.00 0.00 0.00 91 1021.6
20260507151019 55 0 0.0 0.0 0.00 0.00 0.00 90 1021.6
20260507150517 54 0 0.0 0.0 0.00 0.00 0.00 91 1021.6
20260507150034 54 0 0.0 0.0 0.00 0.00 0.00 91 1021.5
20260507145517 54 0 0.0 0.0 0.00 0.00 0.00 91 1021.5
20260507145017 54 0 0.0 0.0 0.00 0.00 0.00 91 1021.5
20260507144544 54 0 0.0 0.0 0.00 0.00 0.00 91 1021.4
20260507144023 54 0 0.0 0.0 0.00 0.00 0.00 91 1021.5
20260507143518 53 0 0.0 0.0 0.00 0.00 0.00 92 1021.5
20260507143044 53 0 0.0 0.0 0.00 0.00 0.00 92 1021.4
20260507142518 53 0 0.0 0.0 0.00 0.00 0.00 92 1021.5
20260507142017 53 0 0.0 0.0 0.00 0.00 0.00 92 1021.5
20260507141541 53 0 0.0 0.0 0.00 0.00 0.00 93 1021.5
20260507141021 53 0 0.0 0.0 0.00 0.00 0.00 93 1021.3
20260507140517 53 0 0.0 0.0 0.00 0.00 0.00 93 1021.4
20260507140041 53 0 0.0 0.0 0.00 0.00 0.00 93 1021.3
20260507135517 53 0 0.0 0.0 0.00 0.00 0.00 93 1021.2
20260507135018 52 0 0.0 0.0 0.00 0.00 0.00 93 1021.2
20260507134535 52 0 0.0 2.0 0.00 0.00 0.00 93 1021.0
20260507134019 52 0 0.0 2.0 0.00 0.00 0.00 93 1021.1
20260507133518 52 84 0.0 2.0 0.00 0.00 0.00 93 1021.0
20260507133046 52 84 0.0 2.0 0.00 0.00 0.00 93 1021.0
20260507132517 52 91 0.0 3.0 0.00 0.00 0.00 93 1021.0
20260507132017 52 86 1.0 3.0 0.00 0.00 0.00 93 1021.0
20260507131537 52 79 0.0 3.0 0.00 0.00 0.00 93 1020.9
20260507131018 52 0 0.0 0.0 0.00 0.00 0.00 93 1020.9
20260507130520 52 0 0.0 0.0 0.00 0.00 0.00 93 1020.9
20260507130042 52 0 0.0 0.0 0.00 0.00 0.00 93 1020.9
20260507125516 52 0 0.0 0.0 0.00 0.00 0.00 93 1020.9
20260507125018 52 0 0.0 0.0 0.00 0.00 0.00 93 1020.9
20260507124540 52 0 0.0 0.0 0.00 0.00 0.00 93 1020.8
20260507124017 52 0 0.0 0.0 0.00 0.00 0.00 93 1020.8
20260507123517 52 0 0.0 0.0 0.00 0.00 0.00 93 1020.9
20260507123044 52 0 0.0 0.0 0.00 0.00 0.00 93 1020.8
20260507122515 52 0 0.0 0.0 0.00 0.00 0.00 93 1020.8
20260507122020 52 0 0.0 0.0 0.00 0.00 0.00 93 1020.9
20260507121537 52 0 0.0 0.0 0.00 0.00 0.00 93 1020.8
20260507121016 52 0 0.0 0.0 0.00 0.00 0.00 93 1020.9
20260507120516 52 0 0.0 0.0 0.00 0.00 0.00 93 1020.9
20260507120034 52 0 0.0 0.0 0.00 0.00 0.00 93 1020.9
20260507115516 52 0 0.0 0.0 0.00 0.00 0.00 93 1020.9
20260507115017 52 0 0.0 0.0 0.00 0.00 0.00 93 1020.9
20260507114534 52 0 0.0 0.0 0.00 0.00 0.00 93 1020.9
20260507114017 52 0 0.0 0.0 0.00 0.00 0.00 93 1020.9
20260507113518 52 0 0.0 0.0 0.00 0.00 0.00 93 1020.9
20260507113037 52 0 0.0 0.0 0.00 0.00 0.00 93 1020.9
20260507112516 52 0 0.0 0.0 0.00 0.00 0.00 93 1020.9
20260507112016 52 0 0.0 0.0 0.00 0.00 0.00 93 1020.9
20260507111552 52 0 0.0 0.0 0.00 0.00 0.00 93 1020.9
20260507111019 52 0 0.0 0.0 0.00 0.00 0.00 93 1020.9
20260507110516 52 0 0.0 0.0 0.00 0.00 0.00 93 1020.9
20260507110040 52 0 0.0 0.0 0.00 0.00 0.00 93 1020.9
20260507105519 52 0 0.0 0.0 0.00 0.01 0.00 93 1020.9
20260507105021 52 0 0.0 0.0 0.00 0.01 0.00 93 1020.9
20260507104535 52 0 0.0 0.0 0.00 0.01 0.00 93 1020.9
20260507104020 52 0 0.0 0.0 0.00 0.01 0.00 93 1020.9
20260507103520 52 0 0.0 0.0 0.00 0.01 0.00 93 1020.8
20260507103035 52 0 0.0 2.0 0.00 0.01 0.00 92 1020.7
20260507102520 52 0 0.0 2.0 0.00 0.01 0.00 93 1020.8
20260507102019 52 82 1.0 2.0 0.00 0.01 0.00 93 1020.8
20260507101546 53 0 0.0 0.0 0.00 0.01 0.00 94 1020.8
20260507101023 53 0 0.0 0.0 0.00 0.01 0.00 94 1020.8
20260507100521 53 0 0.0 0.0 0.00 0.01 0.00 94 1020.9
20260507100042 53 0 0.0 0.0 0.00 0.01 0.00 94 1020.9
20260507095519 53 0 0.0 2.0 0.00 0.01 0.00 94 1020.8
20260507095020 52 0 0.0 2.0 0.00 0.01 0.00 93 1020.9
20260507094543 52 82 1.0 2.0 0.00 0.01 0.00 93 1020.7
20260507094019 52 0 0.0 2.0 0.00 0.01 0.00 93 1020.8
20260507093519 52 0 0.0 2.0 0.00 0.01 0.00 93 1020.9
20260507093044 52 80 0.0 2.0 0.00 0.01 0.00 92 1021.0
20260507092520 52 80 1.0 2.0 0.00 0.01 0.00 93 1021.0
20260507092019 52 0 0.0 3.0 0.00 0.01 0.00 93 1021.2
20260507091542 53 0 0.0 3.0 0.00 0.01 0.00 93 1021.1
20260507091019 53 80 1.0 3.0 0.00 0.01 0.00 93 1021.1
20260507090522 53 74 2.0 3.0 0.00 0.01 0.00 93 1021.3
20260507090037 53 74 0.0 3.0 0.00 0.01 0.00 93 1021.3
20260507085520 53 71 1.0 3.0 0.00 0.01 0.00 93 1021.2
20260507085019 53 71 2.0 3.0 0.00 0.01 0.00 93 1021.3
20260507084544 53 70 1.0 3.0 0.00 0.01 0.00 93 1021.3
20260507084025 53 0 0.0 3.0 0.00 0.01 0.00 93 1021.3
20260507083519 53 70 1.0 3.0 0.00 0.01 0.00 93 1021.3
20260507083042 53 67 2.0 3.0 0.00 0.01 0.00 93 1021.3
20260507082520 53 0 0.0 0.0 0.00 0.01 0.00 93 1021.3
20260507082017 53 0 0.0 0.0 0.00 0.01 0.00 93 1021.3
20260507081538 53 0 0.0 0.0 0.00 0.01 0.00 93 1021.4
20260507081020 53 0 0.0 0.0 0.00 0.01 0.00 93 1021.3
20260507080524 53 0 0.0 0.0 0.00 0.01 0.00 93 1021.3
20260507080039 53 0 0.0 0.0 0.00 0.01 0.00 93 1021.3
20260507075517 53 0 0.0 0.0 0.00 0.01 0.00 93 1021.3
20260507075020 53 0 0.0 0.0 0.00 0.01 0.00 93 1021.3
20260507074550 53 0 0.0 0.0 0.00 0.01 0.00 93 1021.3
20260507074019 53 0 0.0 0.0 0.00 0.01 0.00 93 1021.5
20260507073523 53 0 0.0 0.0 0.00 0.01 0.00 93 1021.5
20260507073035 54 0 0.0 0.0 0.00 0.01 0.00 92 1021.4
20260507072520 54 0 0.0 0.0 0.00 0.01 0.00 92 1021.5
20260507072019 54 0 0.0 0.0 0.00 0.01 0.00 93 1021.5
20260507071541 54 0 0.0 0.0 0.00 0.01 0.00 93 1021.5
20260507071017 54 0 0.0 0.0 0.00 0.01 0.00 93 1021.5
20260507070517 54 0 0.0 0.0 0.00 0.01 0.00 93 1021.4
20260507070048 54 0 0.0 0.0 0.00 0.01 0.00 93 1021.5
20260507065520 54 0 0.0 0.0 0.00 0.01 0.01 93 1021.5
20260507065018 54 0 0.0 0.0 0.00 0.01 0.01 93 1021.5
20260507064550 54 0 0.0 0.0 0.00 0.01 0.01 93 1021.5
20260507064020 54 0 0.0 0.0 0.00 0.01 0.01 93 1021.5
20260507063520 54 0 0.0 0.0 0.00 0.01 0.01 93 1021.4
20260507063038 54 0 0.0 0.0 0.00 0.01 0.01 93 1021.5
20260507062519 54 0 0.0 0.0 0.00 0.01 0.01 93 1021.6
20260507062020 54 0 0.0 0.0 0.00 0.01 0.01 92 1021.6
20260507061534 54 0 0.0 0.0 0.00 0.01 0.01 92 1021.5
20260507061019 54 0 0.0 0.0 0.00 0.01 0.01 92 1021.5
20260507060520 54 0 0.0 0.0 0.00 0.01 0.01 93 1021.5
20260507060049 54 0 0.0 0.0 0.00 0.01 0.01 93 1021.5
20260507055520 54 0 0.0 0.0 0.00 0.01 0.01 93 1021.4
20260507055019 54 0 0.0 0.0 0.00 0.01 0.01 93 1021.4
20260507054542 54 0 0.0 0.0 0.00 0.01 0.01 93 1021.4
20260507054022 54 0 0.0 0.0 0.00 0.01 0.01 93 1021.4
20260507053520 54 0 0.0 0.0 0.00 0.01 0.01 93 1021.4
20260507053044 54 0 0.0 0.0 0.00 0.01 0.01 93 1021.4
20260507052520 54 0 0.0 0.0 0.00 0.01 0.01 93 1021.3
20260507052021 54 0 0.0 0.0 0.00 0.01 0.01 93 1021.3
20260507051540 53 0 0.0 0.0 0.00 0.01 0.01 92 1021.4
20260507051020 54 0 0.0 0.0 0.00 0.01 0.01 92 1021.5
20260507050520 54 0 0.0 0.0 0.00 0.01 0.01 92 1021.4
20260507050042 54 0 0.0 0.0 0.00 0.01 0.01 92 1021.3
20260507045520 54 0 0.0 0.0 0.00 0.01 0.01 92 1021.4
20260507045021 54 0 0.0 0.0 0.00 0.01 0.01 92 1021.3
20260507044535 54 0 0.0 0.0 0.00 0.01 0.01 92 1021.4
20260507044019 54 0 0.0 0.0 0.00 0.01 0.01 92 1021.3
20260507043524 54 0 0.0 0.0 0.00 0.01 0.01 92 1021.3
20260507043035 54 0 0.0 0.0 0.00 0.01 0.01 92 1021.2
20260507042520 54 0 0.0 0.0 0.00 0.01 0.01 92 1021.1
20260507042019 54 0 0.0 0.0 0.00 0.01 0.01 91 1021.1
20260507041551 54 0 0.0 0.0 0.00 0.01 0.01 91 1021.0
20260507041019 54 0 0.0 0.0 0.00 0.01 0.01 91 1021.1
20260507040520 54 0 0.0 0.0 0.00 0.01 0.01 90 1021.0
20260507040041 54 0 0.0 0.0 0.00 0.01 0.01 90 1021.0
20260507035519 54 0 0.0 0.0 0.00 0.01 0.01 90 1021.0
20260507035020 54 0 0.0 0.0 0.00 0.01 0.01 90 1020.9
20260507034539 54 0 0.0 0.0 0.00 0.01 0.01 90 1020.9
20260507034019 54 0 0.0 0.0 0.00 0.01 0.01 90 1020.9
20260507033519 55 0 0.0 0.0 0.00 0.01 0.01 89 1020.8
20260507033036 55 0 0.0 2.0 0.00 0.01 0.01 89 1020.7
20260507032519 55 0 0.0 2.0 0.00 0.01 0.01 88 1020.7
20260507032019 56 0 0.0 2.0 0.00 0.01 0.01 87 1020.7
20260507031534 56 0 0.0 2.0 0.00 0.01 0.01 87 1020.7
20260507031020 57 0 0.0 2.0 0.00 0.01 0.01 86 1020.6
20260507030518 57 0 0.0 0.0 0.00 0.01 0.01 85 1020.6
20260507030033 58 0 0.0 0.0 0.00 0.01 0.01 84 1020.6
20260507025522 58 0 0.0 1.0 0.00 0.01 0.01 84 1020.6
20260507025019 59 0 0.0 1.0 0.00 0.01 0.01 84 1020.6
20260507024542 59 238 0.0 2.0 0.00 0.01 0.01 84 1020.6
20260507024021 59 0 0.0 2.0 0.00 0.01 0.01 83 1020.5
20260507023517 60 0 0.0 2.0 0.00 0.01 0.01 83 1020.4
20260507023041 60 0 0.0 2.0 0.00 0.01 0.01 83 1020.4
20260507022517 60 238 1.0 3.0 0.00 0.01 0.01 82 1020.4
20260507022016 60 238 0.0 3.0 0.00 0.01 0.01 82 1020.4
20260507021537 61 238 1.0 3.0 0.00 0.01 0.01 82 1020.3
20260507021022 61 202 1.0 4.0 0.00 0.01 0.01 81 1020.4
20260507020517 61 202 2.0 5.0 0.00 0.01 0.01 81 1020.3
20260507020036 62 223 2.0 5.0 0.00 0.01 0.01 81 1020.2
20260507015517 62 0 1.0 7.0 0.00 0.02 0.01 80 1020.2
20260507015024 62 246 2.0 7.0 0.00 0.02 0.01 79 1020.3
20260507014548 63 238 2.0 6.0 0.00 0.02 0.01 77 1020.2
20260507014017 63 240 2.0 5.0 0.00 0.02 0.01 77 1020.2
20260507013517 63 240 2.0 5.0 0.00 0.02 0.01 77 1020.2
20260507013044 63 233 2.0 7.0 0.00 0.02 0.01 77 1020.3